Regional Weather Roundup
Issued by NWS

Home | Current Version | Previous Version | Text Only | Print | Product List | Glossary On
Versions: 1 2 3 4 5 6 7 8 9 10 11 12 13 14 15 16 17 18 19 20 21 22 23 24 25 26 27 28 29 30 31 32 33 34 35 36 37 38 39 40 41 42 43 44 45 46 47 48 49 50
000
ASUS43 KDMX 301406
RWRIA

WEATHER ROUNDUP FOR IOWA
NATIONAL WEATHER SERVICE DES MOINES IA
900 AM CDT TUE MAY 30 2017

NOTE: "FAIR" INDICATES FEW OR NO CLOUDS BELOW 12,000 FEET WITH NO
SIGNIFICANT WEATHER AND/OR OBSTRUCTIONS TO VISIBILITY.

* - THESE STATIONS ARE NOT NWS STATIONS...THUS NOT UNDER NWS
QUALITY CONTROL.  THEY ALSO DO NOT REPORT WEATHER SUCH
AS PRECIPITATION OR FOG.

IAZ001>003-012>014-020>022-031>034-043>046-301500-
   NORTHWEST IOWA

CITY           SKY/WX    TMP DP  RH WIND       PRES   REMARKS
CARROLL *      SUNNY     66  46  48 W13       30.03R
CHEROKEE *     SUNNY     63  43  48 W12G20    30.02S
DENISON *      SUNNY     63  48  59 SW9       30.06S
LE MARS *      SUNNY     64  43  45 NW13G20   30.05R
ORANGE CITY *  SUNNY     61  43  51 NW16G22   30.03S
SHELDON *      MOSUNNY   61  39  44 NW15G21   30.01S
SIOUX CITY     SUNNY     63  48  58 NW7       30.05R
SPENCER        MOSUNNY   61  43  51 W20       30.00S
STORM LAKE *   SUNNY     63  43  48 W15       30.02S
$$

IAZ055>058-069>071-079>083-090>094-301500-
   SOUTHWEST IOWA

CITY           SKY/WX    TMP DP  RH WIND       PRES   REMARKS
ATLANTIC *     SUNNY     64  45  48 W12       30.05S
AUDUBON *      SUNNY     63  48  59 W6        30.05S
CLARINDA *     SUNNY     64  48  55 W8G14     30.09S
COUNCIL BLFS * SUNNY     63  50  63 W5        30.07S
CRESTON *      SUNNY     64  46  52 SW15      30.06F
HARLAN  *      SUNNY     63  45  51 W12       30.08S
LAMONI         SUNNY     64  48  56 SW12      30.06S
RED OAK *      SUNNY     66  46  48 SW10      30.07S
SHENANDOAH *   SUNNY     64  48  55 SW8       30.08S
$$

IAZ047>049-059>061-072>074-084-301500-
   CENTRAL IOWA

CITY           SKY/WX    TMP DP  RH WIND       PRES   REMARKS
AMES           PTSUNNY   62  47  57 W13       30.01F
ANKENY *       MOSUNNY   63  48  59 W7        30.04S
BOONE *        PTSUNNY   63  50  63 W10G16    30.01S
CHARITON *     SUNNY     63  50  63 SW7       30.04F
DES MOINES     MOSUNNY   64  48  56 W8        30.03S
GRINNELL*      CLOUDY    57  48  73 SW7       30.03F
KNOXVILLE *    PTSUNNY   61  46  59 W8        30.02F
MARSHALLTOWN   CLOUDY    59  50  72 W10       30.00S
NEWTON *       PTSUNNY   61  48  63 W8        30.02S
PELLA *        SUNNY     63  48  58 W7        30.04S
PERRY *          N/A     65  42  43 W15       30.03S
$$

IAZ004>006-015-016-023>025-035-036-301500-
   NORTH CENTRAL IOWA

CITY           SKY/WX    TMP DP  RH WIND       PRES   REMARKS
ALGONA *       PTSUNNY   63  43  48 NW16      29.99S
CLARION *      PTSUNNY   61  45  55 W17       29.99S
ESTHERVILLE    PTSUNNY   58  48  69 NW13      29.99R
FORT DODGE *   SUNNY     64  48  55 W12G17    30.01F
MASON CITY     MOSUNNY   60  46  59 W14       29.99S
FOREST CITY *    N/A     63  36  36 NW14      29.97F
WEBSTER CITY * MOSUNNY   64  45  48 W15       29.98F
IOWA FALLS *   CLOUDY    60  47  62 W13       30.01S
$$

IAZ007>011-017>019-026>030-037>042-050>054-066-301500-
   NORTHEAST IOWA

CITY           SKY/WX    TMP DP  RH WIND       PRES   REMARKS
CEDAR RAPIDS   CLOUDY    61  48  62 W13       30.00S
CHARLES CITY * MOSUNNY   61  43  51 W13G22    29.97S
CLINTON *      SUNNY     63  50  62 W16       30.00F
DECORAH *      MOSUNNY   59  45  58 W8G17     29.94S
DUBUQUE        PTSUNNY   60  48  64 W12       29.97F
MONTICELLO *   CLOUDY    63  48  59 W12       29.99S
OELWEIN *      CLOUDY    59  48  67 W13       29.98S
WATERLOO       CLOUDY    60  46  59 W10       29.98S
$$

IAZ064-065-067-068-078-301500-
   EAST CENTRAL IOWA

CITY           SKY/WX    TMP DP  RH WIND       PRES   REMARKS
DAVENPORT      SUNNY     65  46  50 W15       30.01S
IOWA CITY      CLOUDY    64  48  56 W12       30.03S
MT. PLEASANT * SUNNY     64  47  54 W8        30.04S
MUSCATINE *    CLOUDY    63  48  59 W10       30.03R
QUAD CITIES    SUNNY     65  49  56 W14       30.01S
$$

IAZ062-063-075>077-085>089-095>099-301500-
   SOUTHEAST IOWA

CITY           SKY/WX    TMP DP  RH WIND       PRES   REMARKS
BURLINGTON     SUNNY     64  51  62 SW7       30.04R
FAIRFIELD *    SUNNY     64  48  55 W7        30.03S
FORT MADISON * SUNNY     64  50  59 SW5       30.05S
KEOKUK *         N/A     64  50  59 MISG      30.04F
OSKALOOSA *      N/A     64  45  49 W13       30.03F
CENTERVILLE *    N/A     64  48  55 SW10      30.06F
OTTUMWA        MOSUNNY   63  47  55 W9        30.03S
WASHINGTON *   PTSUNNY   61  50  67 W8        30.04F
$$

ABBREVIATIONS USED IN REMARKS
   TC - TEMPERATURES IN CELSIUS
  WCI - WIND CHILL INDEX
   HX - HEAT INDEX
  VSB - VISIBILITY
$$





USA.gov is the U.S. government's official web portal to all federal, state and local government web resources and services.